User: anonymous   Login
Location: Gradaro
(45.0833°N, 10.8833°E)
Time: 11:18:36
(UTC+00:00)
Language:

Cosmos 2074 Rocket - Orbit

View from above orbital plane
View from above orbital plane
View from above satellite
View from above satellite

Ground track
Ground track

The orbit data is extracted from the following two-line orbital elements,

1 20578U 90036B   21063.90658545  .00000080  00000-0  66485-4 0  9995
2 20578  82.9401  72.6742 0013734 138.0770 298.1757 13.76381455550327
Epoch (UTC): 04 March 2021 21:45:28
Eccentricity: 0.0013734
inclination: 82.9401°
perigee height: 966 km
apogee height: 987 km
right ascension of ascending node: 72.6742°
argument of perigee: 138.0770°
revolutions per day: 13.76381455
mean anomaly at epoch: 298.1757°
orbit number at epoch: 55032

The dashed part of the orbit path shows where the satellite is in the earth's shadow,  

DLR